Regional Weather Roundup
Issued by NWS Green Bay, WI

Home | Current Version | Previous Version | Text Only | Print | Product List | Glossary On
Versions: 1 2 3 4 5 6 7 8 9 10 11 12 13 14 15 16 17 18 19 20 21 22 23 24 25 26 27 28 29 30 31 32 33 34 35 36 37 38 39 40 41 42 43 44 45 46 47 48 49 50
000
ASUS43 KGRB 281759
RWRGRB

NORTH-CENTRAL AND NORTHEAST WISCONSIN REGIONAL WEATHER ROUNDUP
NATIONAL WEATHER SERVICE GREEN BAY WI
1200 PM CST SUN DEC 28 2014

WIZ005-009-010>012-018-019-281900-
NORTH CENTRAL WISCONSIN

CITY           SKY/WX    TMP DP  RH WIND       PRES   REMARKS
IRONWOOD       CLOUDY    14   9  79 NW10      30.08S WCI   1
MANITOWISH WTR NOT AVBL
ARBOR VITAE    NOT AVBL
EAGLE RIVER    NOT AVBL
LAND O LAKES   NOT AVBL
RHINELANDER    PTSUNNY   16  11  80 W9        30.06S WCI   4
PHILLIPS       FLURRIES  17  12  82 W3        30.08S
ANTIGO         NOT AVBL
TOMAHAWK       NOT AVBL
MERRILL        NOT AVBL
$$

WIZ013-073-281900-
NORTHEAST WISCONSIN

CITY           SKY/WX    TMP DP  RH WIND       PRES   REMARKS
IRON MOUNTAIN    N/A     21  13  71 NW12      30.04S WCI   9
MARINETTE      SUNNY     25  14  63 NW9       30.09F
$$

WIZ017-030-035>037-045-281900-
CENTRAL WISCONSIN

CITY           SKY/WX    TMP DP  RH WIND       PRES   REMARKS
MEDFORD        NOT AVBL
WAUSAU         CLOUDY    17  13  84 NW8       30.10S FOG     WCI   7
MOSINEE        LGT SNOW  18  18 100 W3        30.12S
MARSHFIELD     CLOUDY    16  11  80 NW5       30.11F WCI   9
WISC RAPIDS    CLOUDY    23  15  71 W5        30.14F
STEVENS POINT  NOT AVBL
WAUPACA        SUNNY     28  18  66 W5        30.13F
SHAWANO        SUNNY     24  16  70 W6        30.12F
CLINTONVILLE   MOSUNNY   25  18  74 W6        30.12F
$$

WIZ038-039-048-051-281900-
FOX VALLEY

CITY           SKY/WX    TMP DP  RH WIND       PRES   REMARKS
NWS GREEN BAY  SUNNY     26  18  71 W8        30.13S
APPLETON       PTSUNNY   25  16  68 NW7       30.13S
OSHKOSH        SUNNY     26  18  71 W6        30.13F
FOND DU LAC    SUNNY     27  17  66 W7        30.13F
$$

WIZ022-050-052-281900-
EAST CENTRAL WISCONSIN

CITY           SKY/WX    TMP DP  RH WIND       PRES   REMARKS
STURGEON BAY   SUNNY     23  14  68 W9        30.11S
MANITOWOC      NOT AVBL
SHEBOYGAN      SUNNY     28  18  66 NW12      30.12F
$$

LMZ563-521-522-541>543-281900-
LAKESHORE

STATION/POSITION TIME  TEMP    WIND        PRES    VSBY  WAVE
                       AIR SEA DIR/SP/G                  HT/PER
                 (UTC) (F)     (DEG/KT/KT) (MB)    (MI)  (FT/S)
SHEBOYGAN LKSHOR 1700   26 36  290/ 10/ 13 1021.6F
KEWAUNEE LKSHORE 1700   25     300/ 10/ 15 1018.7F
NORTHPORT PIER   1700   24     280/  9/ 16 1018.6F
SISTER BAY LKSHO 1700          280/ 13/ 16   N/A
CHAMBERS ISLAND  1700   23     260/  6/  9 1019.6S
MENOMINEE LKSHOR 1700   24     260/  7/ 13 1019.9F
$$



USA.gov is the U.S. government's official web portal to all federal, state and local government web resources and services.